Showing default

VINDLER 2.3, 68486

Orbit data source: Space-Track

VINDLER 2.3, 68486 is an American payload satellite in SSO that was launched on Mon, 30 Mar 2026 UTC via an FALCON 9 launch vehicle from the Air Force Western Test Range (AFWTR). Payload-class satellites include a variety of spacecraft equipped with specific instruments for various scientific and technological missions. These include communications satellites like Starlink; space stations such as the ISS; scientific satellites like the Hubble; Earth observation satellites from companies like Planet Labs, Umbra, and HawkEye 360; GPS; miniature CubeSats for education and research; and military/defense satellites.

Loading next visibility...
Identifier
68486, 2026-067BY
Orbit
SSO
Country
Flag of USUS
Related business
None
Manufacturer
Unknown
Mission
Operational spacecraft
Bus & Motor
Unknown
Mass
Unknown
Launch date (UTC)
2026-03-30 (1 month ago)
Launch vehicle
FALCON 9
Launch site
Air Force Western Test Range (AFWTR)
Object type
Payload
Rocket body
Debris
Shape & HBR
Unknown shape, 1.1 m
Radar Cross Section
RCS unknown

Expand to show TLE details & history
Last TLE update: 9 hours ago

TLE from 9 hours ago
0 VINDLER 2.3
1 68486U 26067BY  26127.19691139  .00001241  00000-0  12845-3 0  9991
2 68486  97.7559  86.0878 0002665  92.6868 267.4656 14.91838538  5619
Epoch: 2026-05-07T04:43Z
TLE epoch observation values (Epoch: 2026-05-07T04:43:33.144Z)
Latitude
0.00001°
Longitude
150.15319°
Altitude
595.327 km
Speed
7.562 km/s
True Right ascension
05h 44m 21s
True Declination
0° 00' 00"
Sunlit
Object was in daylight at epoch
Visualization orbit readout
Latitude
Unknown
Longitude
Unknown
Altitude
Unknown
Speed
Unknown
Apparent Right ascension
Unknown
Apparent Declination
Unknown
Sunlit
N/A
Visualization observer readout
Local Sidereal Time
22:03:35
Azimuth
Unknown
Elevation
Unknown
Doppler factor
Unknown
Orbital elements
Apogee altitude
591.078 km
Perigee altitude
587.365 km
Semi-major axis
6,967.359 km
Eccentricity
0.00027
Inclination
97.7559°
RAAN
86.0878°
Arg. of periapsis
92.6868°
True anomaly
267.43509°
Mean anomaly
267.4656°
Eccentric anomaly
267.45035°
Mean motion
3.73199 °/min
Orbital period
96.46 mins
BSTAR
0.00012845
Loading maneuver chart data...
Computing Atmospheric mass density...
Loading historical data...
Loading historical data...
Loading historical data...
Loading historical data...
Loading historical data...
Loading historical data...
Loading historical data...

Documentation

Showing up to 5 results
|